Вернуться в каталог

CHINASAT 6B

АктивенСвязьGEO
NORAD 31800·PAYLOAD·🇨🇳 China

Запущен Jul 5, 2007 с Xichang Satellite Launch Center

Loading…

TLE

СвежийSource: Space-Track

Эпоха: Sep 14, 2026, 04:37 UTC

1 31800U 07031A   26257.19289823 -.00000070  00000-0  00000-0 0  9995
2 31800   2.6685  78.4875 0005705 231.4992  29.8954  0.99058814 70274

Отслеживайте CHINASAT 6B в реальном времени с AllMySat

Download on the App Store